| Date | Time | Temp. (oF) | Dew Point (oF) | Rel. Hum. (%) | Press. (in.) | Wind Dir. | Wind Speed (mph) | Hourly Rainfall (in.) |
|
|---|---|---|---|---|---|---|---|---|---|
| 1 | 01/20 | 00:00 | 36 | 35 | 99 | 29.98 | NNW | 4 | 0.00 |
| 2 | 01/19 | 23:00 | 37 | 36 | 100 | 29.92 | NNE | 6 | 0.00 |
| 3 | 01/19 | 22:00 | 37 | 36 | 100 | 29.92 | N | 5 | 0.01 |
| 4 | 01/19 | 21:00 | 37 | 36 | 100 | 29.91 | NW | 2 | 0.01 |
| 5 | 01/19 | 20:00 | 37 | 36 | 100 | 29.91 | NW | 1 | 0.00 |
| 6 | 01/19 | 19:00 | 36 | 36 | 100 | 29.88 | NW | 2 | 0.01 |
| 7 | 01/19 | 18:00 | 36 | 36 | 100 | 29.86 | NW | 2 | 0.03 |
| 8 | 01/19 | 17:00 | 36 | 36 | 100 | 29.85 | NW | 2 | 0.05 |
| 9 | 01/19 | 16:00 | 38 | 37 | 97 | 29.82 | NW | 2 | 0.03 |
| 10 | 01/19 | 15:00 | 38 | 37 | 98 | 29.80 | NNW | 3 | 0.01 |
| 11 | 01/19 | 14:00 | 38 | 37 | 98 | 29.80 | NNW | 6 | 0.02 |
| 12 | 01/19 | 13:00 | 38 | 37 | 98 | 29.81 | NNE | 4 | 0.03 |
| 13 | 01/19 | 12:00 | 37 | 36 | 97 | 29.86 | NW | 3 | 0.03 |
| 14 | 01/19 | 11:00 | 37 | 36 | 97 | 29.90 | E | 1 | 0.04 |
| 15 | 01/19 | 10:00 | 37 | 36 | 97 | 29.92 | ESE | 0 | 0.05 |
| 16 | 01/19 | 09:00 | 36 | 35 | 98 | 29.93 | NE | 6 | 0.05 |
| 17 | 01/19 | 08:00 | 35 | 34 | 98 | 29.96 | NE | 4 | 0.05 |
| 18 | 01/19 | 07:00 | 35 | 34 | 99 | 29.99 | N | 3 | 0.06 |
| 19 | 01/19 | 06:00 | 35 | 34 | 98 | 29.98 | NNE | 1 | 0.04 |
| 20 | 01/19 | 05:00 | 35 | 34 | 98 | 29.99 | SE | 1 | 0.07 |
| 21 | 01/19 | 04:00 | 34 | 33 | 98 | 29.99 | ENE | 1 | 0.03 |
| 22 | 01/19 | 03:00 | 34 | 33 | 97 | 30.04 | NE | 2 | 0.01 |
| 23 | 01/19 | 02:00 | 34 | 33 | 97 | 30.03 | NE | 3 | 0.00 |
| 24 | 01/19 | 01:00 | 34 | 33 | 98 | 30.06 | NE | 3 | 0.00 |